Location: *
(1.3500°S, 147.5000°W)
Time: 02:05:24
(UTC+00:00)

Envisat - Pass Details

Date: 22 June 2021
Orbit: 764 x 766 km, 98.2° (Epoch: 03 August)

Event Time Altitude Azimuth Distance (km) Brightness Sun altitude
Rises 14:44:40 0° 13° (NNE) 3,213 6.8 -16.0°
Reaches altitude 10° 14:46:57 10° 14° (NNE) 2,289 6.0 -15.5°
Maximum altitude 14:52:00 83° 102° (ESE) 772 3.0 -14.3°
Drops below altitude 10° 14:57:05 10° 190° (S) 2,300 5.2 -13.2°
Sets 14:59:23 0° 190° (S) 3,228 5.9 -12.6°
